FENGYUN 1C DEB, 40696

Orbit data source: Space-Track

FENGYUN 1C DEB, 40696 is space debris in SSO originally from a launch on Mon, 10 May 1999 UTC launched from the Taiyaun Space Center, China (TSC). Fengyun 1C debris stems from the Chinese weather satellite Fengyun-1C, which was intentionally destroyed by a Chinese anti-satellite missile in 2007. This event dramatically increased the amount of space debris, with thousands of trackable fragments posing hazards to satellites and human spaceflight. The Fengyun 1C debris cloud has become a focal point in discussions about space sustainability and the need for international regulations to prevent the creation of new debris.

Loading next visibility...
Identifier
40696, 1999-025EXC
Orbit
SSO
Country
Flag of CNCN / PRC
Related business
Manufacturer
Unknown
Mission
Spacecraft
Bus & Motor
Unknown
Mass
Unknown
Launch date (UTC)
1999-05-10 (26 years ago)
Launch vehicle
Unknown
Launch site
Taiyaun Space Center, China (TSC)
Object type
Payload
Rocket body
Debris
Shape & HBR
Unknown shape, 0.1 m
Radar Cross Section
Small (<0.1 m²)

Expand to show TLE details & history
Last TLE update: 3 weeks ago

TLE from 3 weeks ago
0 FENGYUN 1C DEB
1 40696U 99025EXC 25277.22558361  .00000133  00000-0  12351-3 0  9997
2 40696  98.9519 265.8273 0079720 187.5176 172.4798 13.96689743547090
Epoch: 2025-10-04T05:24Z
TLE epoch observation values (Epoch: 2025-10-04T05:24:50.423Z)
Latitude
-0°
Longitude
171.45662°
Altitude
965.738 km
Speed
7.34 km/s
True Right ascension
17h 43m 18s
True Declination
0° 00' 00"
Sunlit
Object was in daylight at epoch
Visualization orbit readout
Latitude
Unknown
Longitude
Unknown
Altitude
Unknown
Speed
Unknown
Apparent Right ascension
Unknown
Apparent Declination
Unknown
Sunlit
N/A
Visualization observer readout
Local Sidereal Time
00:44:52
Azimuth
Unknown
Elevation
Unknown
Doppler factor
Unknown
Orbital elements
Apogee altitude
960.523 km
Perigee altitude
844.441 km
Semi-major axis
7,280.619 km
Eccentricity
0.00797
Inclination
98.9519°
RAAN
265.8273°
Arg. of periapsis
187.5176°
True anomaly
172.59819°
Mean anomaly
172.4798°
Eccentric anomaly
172.53911°
Mean motion
3.49374 °/min
Orbital period
103.04 mins
BSTAR
0.00012351
Loading maneuver chart data...
Computing Atmospheric mass density...

Documentation

Showing up to 5 results
|